Flag for United Kingdom Weather past 2 weeks in Walsall, England, United Kingdom

Now
57 °F

Partly sunny.


Feels Like: 54 °F
Forecast: 46 / 60 °F
Wind: 14 mph from Northwest

Location: Birmingham / Airport

Current Time: May 25, 2015 at 5:14:48 PM

Latest Report: May 25, 2015 at 4:50 PM


Visibility: N/A

Pressure: 30.09 "Hg

Humidity: 63%

Dew point: 45 °F

Location of WalsallLocation

Historic Weather in Walsall — Graph

°F

Walsall temperature yesterday

Maximum temperature yesterday: 61 °F (at 1:50 PM)
Minimum temperature yesterday: 50 °F (at 3:20 AM)
Average temperature yesterday: 55 °F

Past Weeks' High & Low Weather Summary

 TemperatureHumidityPressure
High66 °F (May 11, 2:20 PM)100% (May 18, 8:20 AM)30.33 "Hg (May 18, 8:20 AM)
Low41 °F (May 13, 5:20 AM)29% (May 12, 3:50 PM)29.50 "Hg (May 19, 2:50 AM)
Average53 °F69%30.06 "Hg
* Reported May 10 3:20 PM — May 25 3:50 PM, Walsall, Weather by CustomWeather, © 2015

Note: Actual official high and low records may vary slightly from our data, if they occured in-between our weather recording intervals... More about our weather records

Advertising

Walsall weather history for previous 24 hours

 ConditionsComfort  
Time TempWeatherWind HumidityBarometerVisibility
3:50 PM
Mon, May 25
57 °FPartly sunny.10 mph63%30.09 "HgN/A
3:20 PM57 °FPartly sunny.10 mph59%30.09 "HgN/A
2:50 PM57 °FPartly sunny.10 mph59%30.09 "HgN/A
2:20 PM57 °FMostly cloudy.10 mph59%30.09 "HgN/A
1:50 PM57 °FMostly cloudy.8 mph55%30.09 "HgN/A
1:20 PM57 °FOvercast.10 mph55%30.09 "HgN/A
12:50 PM57 °FOvercast.8 mph55%30.09 "HgN/A
12:20 PM57 °FMostly cloudy.8 mph55%30.09 "HgN/A
11:50 AM57 °FPartly sunny.14 mph51%30.09 "HgN/A
11:20 AM55 °FPartly sunny.10 mph55%30.09 "HgN/A
10:50 AM55 °FPartly sunny.9 mph55%30.09 "HgN/A
10:20 AM54 °FPartly sunny.12 mph58%30.09 "HgN/A
9:50 AM54 °FBroken clouds.10 mph58%30.09 "HgN/A
9:20 AM54 °FPassing clouds.10 mph63%30.12 "HgN/A
8:50 AM52 °FPassing clouds.12 mph67%30.12 "HgN/A
8:20 AM52 °FPassing clouds.10 mph62%30.12 "HgN/A
7:50 AM50 °FPassing clouds.12 mph67%30.12 "HgN/A
7:20 AM50 °FScattered clouds.9 mph67%30.09 "HgN/A
6:50 AM50 °FPartly sunny.5 mph71%30.09 "HgN/A
6:20 AM48 °FPassing clouds.3 mph76%30.09 "HgN/A
5:50 AM48 °FPassing clouds.3 mph76%30.09 "HgN/A
5:20 AM48 °FPassing clouds.3 mph76%30.09 "HgN/A
4:50 AM48 °FPassing clouds.5 mph76%30.09 "HgN/A
4:20 AM48 °FPassing clouds.6 mph76%30.09 "HgN/A
3:50 AM48 °FPassing clouds.6 mph76%30.09 "HgN/A
3:20 AM46 °FPassing clouds.6 mph82%30.12 "HgN/A
2:50 AM46 °FCool.5 mph82%30.09 "HgN/A
2:20 AM46 °FCool.3 mph82%30.09 "HgN/A
1:50 AM46 °FCool.2 mph76%30.12 "HgN/A
1:20 AM46 °FClear.2 mph76%30.12 "Hg10 mi
12:50 AM46 °FClear.No wind76%30.12 "Hg10 mi
12:20 AM48 °FClear.2 mph71%30.12 "Hg10 mi
11:50 PM
Sun, May 24
50 °FClear.5 mph67%30.12 "Hg10 mi
11:20 PM50 °FClear.7 mph67%30.12 "Hg10 mi
10:20 PM50 °FPassing clouds.6 mph67%30.12 "HgN/A
9:50 PM52 °FScattered clouds.12 mph62%30.12 "HgN/A
9:20 PM54 °FScattered clouds.12 mph63%30.12 "HgN/A
8:50 PM54 °FScattered clouds.14 mph63%30.09 "HgN/A
8:20 PM55 °FScattered clouds.12 mph63%30.09 "HgN/A
7:50 PM57 °FPassing clouds.12 mph59%30.09 "HgN/A
7:20 PM57 °FSunny.12 mph59%30.09 "Hg10 mi
6:50 PM57 °FSunny.12 mph63%30.09 "Hg10 mi
6:20 PM57 °FSunny.13 mph67%30.09 "Hg10 mi
5:50 PM57 °FPassing clouds.14 mph67%30.07 "HgN/A
5:20 PM61 °FScattered clouds.13 mph63%30.07 "HgN/A
Weather by CustomWeather, © 2015

See weather overviewHow to use our weather pages